,,,PA_Meas_PMT16A,,PR_Meas_QMR101_102,,RH_Meas_QMH101,,SR_Meas_QMS101,,TA_Meas_QMH101,,GenWind,,GenWind,
date,time,status,PA,status,PR,status,RH,status,SR,status,TA,status,DirAvg,status,SpdAvg,
2009-12-08, 00:00:04,VALID,1010.85,VALID,0,VALID,56.2857,VALID,0.105969,VALID,23.1467,VALID,75,VALID,0.565625,
2009-12-08, 00:01:04,VALID,1010.83,VALID,0,VALID,56.2857,VALID,0.105969,VALID,23.1874,VALID,87,VALID,0.478125,
2009-12-08, 00:02:04,VALID,1010.81,VALID,0,VALID,56.2628,VALID,0,VALID,23.1662,VALID,87,VALID,0.464844,
2009-12-08, 00:03:04,VALID,1010.84,VALID,0,VALID,56.3009,VALID,0.105969,VALID,23.1662,VALID,90,VALID,0.925,
2009-12-08, 00:04:04,VALID,1010.83,VALID,0,VALID,56.2933,VALID,0.105969,VALID,23.1662,VALID,91,VALID,1.03359,
2009-12-08, 00:05:04,VALID,1010.81,VALID,0,VALID,56.2857,VALID,0,VALID,23.1874,VALID,89,VALID,0.642187,
2009-12-08, 00:06:04,VALID,1010.79,VALID,0,VALID,56.2094,VALID,0.105969,VALID,23.1874,VALID,84,VALID,0.817969,
2009-12-08, 00:07:04,VALID,1010.76,VALID,0,VALID,56.2704,VALID,0.105969,VALID,23.1662,VALID,79,VALID,1.0125,
2009-12-08, 00:08:04,VALID,1010.77,VALID,0,VALID,56.2933,VALID,0.105969,VALID,23.1467,VALID,75,VALID,0.515234,
2009-12-08, 00:09:04,VALID,1010.78,VALID,0,VALID,56.2857,VALID,0.105969,VALID,23.1662,VALID,71,VALID,0.84375,
2009-12-08, 00:10:04,VALID,1010.79,VALID,0,VALID,56.3086,VALID,0.105969,VALID,23.1679,VALID,70,VALID,0.523438,
2009-12-08, 00:11:04,VALID,1010.78,VALID,0,VALID,56.3086,VALID,0,VALID,23.1697,VALID,63,VALID,0.212109,
2009-12-08, 00:12:04,VALID,1010.75,VALID,0,VALID,56.3086,VALID,0,VALID,23.1485,VALID,61,VALID,0.628906,
2009-12-08, 00:13:04,VALID,1010.78,VALID,0,VALID,56.3467,VALID,0,VALID,23.129,VALID,59,VALID,0.446875,
2009-12-08, 00:14:04,VALID,1010.77,VALID,0,VALID,56.3314,VALID,0,VALID,23.129,VALID,59,VALID,0.0347656,
2009-12-08, 00:15:04,VALID,1010.76,VALID,0,VALID,56.3314,VALID,0,VALID,23.129,VALID,59,VALID,0,
2009-12-08, 00:16:04,VALID,1010.76,VALID,0,VALID,56.3467,VALID,0,VALID,23.1485,VALID,59,VALID,0,
2009-12-08, 00:17:04,VALID,1010.73,VALID,0,VALID,56.3162,VALID,0,VALID,23.1502,VALID,59,VALID,0,
2009-12-08, 00:18:04,VALID,1010.7,VALID,0,VALID,56.3314,VALID,0,VALID,23.1485,VALID,59,VALID,0,
2009-12-08, 00:19:04,VALID,1010.69,VALID,0,VALID,56.3238,VALID,0,VALID,23.129,VALID,59,VALID,0,
2009-12-08, 00:20:04,VALID,1010.65,VALID,0,VALID,56.3391,VALID,0,VALID,23.129,VALID,65,VALID,0,
2009-12-08, 00:21:05,VALID,1010.62,VALID,0,VALID,56.3238,VALID,0,VALID,23.129,VALID,154,VALID,0.592188,
2009-12-08, 00:22:05,VALID,1010.59,VALID,0,VALID,56.3391,VALID,0,VALID,23.129,VALID,168,VALID,0.492969,
2009-12-08, 00:23:05,VALID,1010.59,VALID,0,VALID,56.3696,VALID,0,VALID,23.1095,VALID,168,VALID,0.601953,
2009-12-08, 00:24:05,VALID,1010.6,VALID,0,VALID,56.3848,VALID,0,VALID,23.1095,VALID,170,VALID,0.670703,
2009-12-08, 00:25:05,VALID,1010.6,VALID,0,VALID,56.3772,VALID,0,VALID,23.0705,VALID,171,VALID,0.442187,
2009-12-08, 00:26:05,VALID,1010.56,VALID,0,VALID,56.4001,VALID,0,VALID,23.0705,VALID,171,VALID,0,
2009-12-08, 00:27:05,VALID,1010.58,VALID,0,VALID,56.3619,VALID,0,VALID,23.09,VALID,171,VALID,0,
2009-12-08, 00:28:05,VALID,1010.56,VALID,0,VALID,56.3848,VALID,0,VALID,23.0705,VALID,171,VALID,0,
2009-12-08, 00:29:05,VALID,1010.54,VALID,0,VALID,56.4077,VALID,0,VALID,23.0705,VALID,171,VALID,0,
2009-12-08, 00:30:05,VALID,1010.52,VALID,0,VALID,56.423,VALID,0,VALID,23.0511,VALID,171,VALID,0,
2009-12-08, 00:31:05,VALID,1010.5,VALID,0,VALID,56.3924,VALID,0,VALID,23.0705,VALID,171,VALID,0,
2009-12-08, 00:32:05,VALID,1010.51,VALID,0,VALID,56.3696,VALID,0,VALID,23.0918,VALID,171,VALID,0,
2009-12-08, 00:33:05,VALID,1010.47,VALID,0,VALID,56.3772,VALID,0,VALID,23.0918,VALID,171,VALID,0,
2009-12-08, 00:34:05,VALID,1010.49,VALID,0,VALID,56.3848,VALID,0,VALID,23.0918,VALID,171,VALID,0,
2009-12-08, 00:35:05,VALID,1010.45,VALID,0,VALID,56.3467,VALID,0,VALID,23.09,VALID,171,VALID,0,
2009-12-08, 00:36:05,VALID,1010.44,VALID,0,VALID,56.4306,VALID,0,VALID,23.0705,VALID,171,VALID,0,
2009-12-08, 00:37:05,VALID,1010.4,VALID,0,VALID,56.3848,VALID,0,VALID,23.0705,VALID,171,VALID,0,
2009-12-08, 00:38:05,VALID,1010.37,VALID,0,VALID,56.4001,VALID,0,VALID,23.09,VALID,171,VALID,0,
2009-12-08, 00:39:05,VALID,1010.34,VALID,0,VALID,56.4001,VALID,0,VALID,23.1112,VALID,171,VALID,0,
2009-12-08, 00:40:05,VALID,1010.3,VALID,0,VALID,56.3924,VALID,0,VALID,23.0705,VALID,171,VALID,0,
2009-12-08, 00:41:05,VALID,1010.27,VALID,0,VALID,56.3848,VALID,0,VALID,23.09,VALID,171,VALID,0,
2009-12-08, 00:42:05,VALID,1010.26,VALID,0,VALID,56.4077,VALID,0,VALID,23.09,VALID,171,VALID,0,
2009-12-08, 00:43:05,VALID,1010.23,VALID,0,VALID,56.4001,VALID,0,VALID,23.0705,VALID,171,VALID,0,
2009-12-08, 00:44:05,VALID,1010.23,VALID,0,VALID,56.4153,VALID,0,VALID,23.0705,VALID,171,VALID,0,
2009-12-08, 00:45:05,VALID,1010.2,VALID,0,VALID,56.3696,VALID,0,VALID,23.0705,VALID,171,VALID,0,
2009-12-08, 00:46:05,VALID,1010.18,VALID,0,VALID,56.4001,VALID,0,VALID,23.0705,VALID,171,VALID,0,
2009-12-08, 00:47:05,VALID,1010.19,VALID,0,VALID,56.4077,VALID,0,VALID,23.0918,VALID,171,VALID,0,
2009-12-08, 00:48:05,VALID,1010.17,VALID,0,VALID,56.3924,VALID,0,VALID,23.0705,VALID,171,VALID,0,
2009-12-08, 00:49:05,VALID,1010.14,VALID,0,VALID,56.3848,VALID,0,VALID,23.0705,VALID,171,VALID,0,
2009-12-08, 00:50:05,VALID,1010.09,VALID,0,VALID,56.3772,VALID,0,VALID,23.09,VALID,171,VALID,0,
2009-12-08, 00:51:05,VALID,1010.08,VALID,0,VALID,56.3924,VALID,0,VALID,23.09,VALID,171,VALID,0,
2009-12-08, 00:52:05,VALID,1010.04,VALID,0,VALID,56.3772,VALID,0,VALID,23.0705,VALID,171,VALID,0,
2009-12-08, 00:53:05,VALID,1010.02,VALID,0,VALID,56.3543,VALID,0,VALID,23.0705,VALID,171,VALID,0,
2009-12-08, 00:54:05,VALID,1009.98,VALID,0,VALID,56.4001,VALID,0,VALID,23.0705,VALID,105,VALID,0,
2009-12-08, 00:55:05,VALID,1009.99,VALID,0,VALID,56.423,VALID,0,VALID,23.0705,VALID,52,VALID,0,
2009-12-08, 00:56:05,VALID,1009.97,VALID,0,VALID,56.3924,VALID,0.211938,VALID,23.0493,VALID,44,VALID,0,
2009-12-08, 00:57:05,VALID,1009.93,VALID,0,VALID,56.4306,VALID,0.105969,VALID,23.0688,VALID,44,VALID,0,
2009-12-08, 00:58:05,VALID,1009.92,VALID,0,VALID,56.4382,VALID,0.105969,VALID,23.0493,VALID,44,VALID,0,
2009-12-08, 00:59:05,VALID,1009.92,VALID,0,VALID,56.4611,VALID,0.211938,VALID,23.0493,VALID,44,VALID,0,
2009-12-08, 01:00:05,VALID,1009.92,VALID,0,VALID,56.4382,VALID,0.105969,VALID,23.0298,VALID,44,VALID,0,
2009-12-08, 01:01:05,VALID,1009.92,VALID,0,VALID,56.4306,VALID,0.105969,VALID,23.0298,VALID,44,VALID,0,
2009-12-08, 01:02:05,VALID,1009.91,VALID,0,VALID,56.4535,VALID,0.105969,VALID,23.0103,VALID,43,VALID,0,
2009-12-08, 01:03:05,VALID,1009.92,VALID,0,VALID,56.4535,VALID,0.105969,VALID,23.0298,VALID,37,VALID,0,
2009-12-08, 01:04:05,VALID,1009.9,VALID,0,VALID,56.4611,VALID,0.105969,VALID,23.0103,VALID,37,VALID,0,
2009-12-08, 01:05:05,VALID,1009.89,VALID,0,VALID,56.4458,VALID,0.105969,VALID,23.0103,VALID,37,VALID,0,
2009-12-08, 01:06:05,VALID,1009.89,VALID,0,VALID,56.4153,VALID,0.105969,VALID,23.0103,VALID,37,VALID,0,
2009-12-08, 01:07:05,VALID,1009.89,VALID,0,VALID,56.4458,VALID,0.105969,VALID,23.0298,VALID,37,VALID,0,
2009-12-08, 01:08:05,VALID,1009.88,VALID,0,VALID,56.4382,VALID,0.105969,VALID,23.0298,VALID,37,VALID,0,
2009-12-08, 01:09:05,VALID,1009.91,VALID,0,VALID,56.3924,VALID,0.105969,VALID,23.0298,VALID,356,VALID,0,
2009-12-08, 01:10:05,VALID,1009.9,VALID,0,VALID,56.423,VALID,0.105969,VALID,23.0298,VALID,355,VALID,0,
2009-12-08, 01:11:05,VALID,1009.92,VALID,0,VALID,56.4535,VALID,0,VALID,23.0333,VALID,355,VALID,0,
2009-12-08, 01:12:05,VALID,1009.92,VALID,0,VALID,56.4306,VALID,0,VALID,23.0316,VALID,355,VALID,0,
2009-12-08, 01:13:05,VALID,1009.93,VALID,0,VALID,56.4458,VALID,0,VALID,23.0121,VALID,355,VALID,0,
2009-12-08, 01:14:05,VALID,1009.91,VALID,0,VALID,56.4382,VALID,0,VALID,23.0121,VALID,355,VALID,0,
2009-12-08, 01:15:05,VALID,1009.91,VALID,0,VALID,56.4611,VALID,0,VALID,23.0121,VALID,12,VALID,0,
2009-12-08, 01:16:05,VALID,1009.91,VALID,0,VALID,56.4611,VALID,0,VALID,22.9926,VALID,56,VALID,0,
2009-12-08, 01:17:05,VALID,1009.9,VALID,0,VALID,56.4458,VALID,0,VALID,23.0121,VALID,64,VALID,0,
2009-12-08, 01:18:05,VALID,1009.9,VALID,0,VALID,56.4306,VALID,0,VALID,23.0121,VALID,64,VALID,0,
2009-12-08, 01:19:05,VALID,1009.89,VALID,0,VALID,56.4306,VALID,0,VALID,23.0121,VALID,65,VALID,0,
2009-12-08, 01:20:05,VALID,1009.88,VALID,0,VALID,56.4535,VALID,0,VALID,23.0121,VALID,65,VALID,0,
2009-12-08, 01:21:05,VALID,1009.86,VALID,0,VALID,56.4687,VALID,0,VALID,22.9926,VALID,65,VALID,0,
2009-12-08, 01:22:05,VALID,1009.86,VALID,0,VALID,56.4535,VALID,0,VALID,23.0121,VALID,42,VALID,0,
2009-12-08, 01:23:05,VALID,1009.87,VALID,0,VALID,56.484,VALID,0,VALID,23.0121,VALID,42,VALID,0,
2009-12-08, 01:24:05,VALID,1009.85,VALID,0,VALID,56.4916,VALID,0,VALID,23.0138,VALID,42,VALID,0,
2009-12-08, 01:25:05,VALID,1009.86,VALID,0,VALID,56.484,VALID,0,VALID,22.9926,VALID,42,VALID,0,
2009-12-08, 01:26:05,VALID,1009.86,VALID,0,VALID,56.4687,VALID,0.105969,VALID,22.9926,VALID,42,VALID,0,
2009-12-08, 01:27:05,VALID,1009.85,VALID,0,VALID,56.4611,VALID,0.105969,VALID,23.0103,VALID,42,VALID,0,
2009-12-08, 01:28:05,VALID,1009.84,VALID,0,VALID,56.4611,VALID,0.105969,VALID,23.0103,VALID,42,VALID,0,
2009-12-08, 01:29:05,VALID,1009.83,VALID,0,VALID,56.4535,VALID,0.105969,VALID,23.0121,VALID,42,VALID,0,
2009-12-08, 01:30:05,VALID,1009.81,VALID,0,VALID,56.4687,VALID,0,VALID,23.0316,VALID,42,VALID,0,
2009-12-08, 01:31:05,VALID,1009.78,VALID,0,VALID,56.4382,VALID,0.105969,VALID,23.0298,VALID,42,VALID,0,
2009-12-08, 01:32:05,VALID,1009.8,VALID,0,VALID,56.4153,VALID,0,VALID,23.0121,VALID,42,VALID,0,
2009-12-08, 01:33:05,VALID,1009.77,VALID,0,VALID,56.4535,VALID,0,VALID,23.0103,VALID,42,VALID,0,
2009-12-08, 01:34:05,VALID,1009.78,VALID,0,VALID,56.4153,VALID,0,VALID,23.0316,VALID,45,VALID,0,
2009-12-08, 01:35:05,VALID,1009.77,VALID,0,VALID,56.4535,VALID,0,VALID,23.0316,VALID,59,VALID,0,
2009-12-08, 01:36:05,VALID,1009.75,VALID,0,VALID,56.4382,VALID,0.105969,VALID,23.0316,VALID,47,VALID,0,
2009-12-08, 01:37:05,VALID,1009.75,VALID,0,VALID,56.4458,VALID,0,VALID,23.0316,VALID,72,VALID,0,
2009-12-08, 01:38:05,VALID,1009.78,VALID,0,VALID,56.4458,VALID,0,VALID,23.0316,VALID,39,VALID,0,
2009-12-08, 01:39:05,VALID,1009.74,VALID,0,VALID,56.4687,VALID,0.105969,VALID,23.0103,VALID,38,VALID,0,
2009-12-08, 01:40:05,VALID,1009.77,VALID,0,VALID,56.4458,VALID,0.105969,VALID,23.0316,VALID,38,VALID,0,
2009-12-08, 01:41:05,VALID,1009.76,VALID,0,VALID,56.4535,VALID,0,VALID,23.0316,VALID,38,VALID,0,
2009-12-08, 01:42:05,VALID,1009.77,VALID,0,VALID,56.4611,VALID,0,VALID,23.0121,VALID,38,VALID,0,
2009-12-08, 01:43:05,VALID,1009.76,VALID,0,VALID,56.4535,VALID,0,VALID,23.0121,VALID,38,VALID,0,
2009-12-08, 01:44:05,VALID,1009.75,VALID,0,VALID,56.4535,VALID,0,VALID,23.0121,VALID,38,VALID,0,
2009-12-08, 01:45:05,VALID,1009.75,VALID,0,VALID,56.423,VALID,0,VALID,23.0103,VALID,27,VALID,0,
2009-12-08, 01:46:05,VALID,1009.76,VALID,0,VALID,56.4382,VALID,0,VALID,23.0121,VALID,330,VALID,0,
2009-12-08, 01:47:05,VALID,1009.76,VALID,0,VALID,56.4306,VALID,0,VALID,23.0121,VALID,330,VALID,0,
2009-12-08, 01:48:05,VALID,1009.77,VALID,0,VALID,56.4382,VALID,0,VALID,22.9714,VALID,330,VALID,0,
2009-12-08, 01:49:05,VALID,1009.75,VALID,0,VALID,56.4458,VALID,0.105969,VALID,22.9909,VALID,330,VALID,0,
2009-12-08, 01:50:05,VALID,1009.73,VALID,0,VALID,56.484,VALID,0,VALID,22.9731,VALID,330,VALID,0,
2009-12-08, 01:51:05,VALID,1009.73,VALID,0,VALID,56.4916,VALID,0.105969,VALID,22.9731,VALID,330,VALID,0,
2009-12-08, 01:52:05,VALID,1009.72,VALID,0,VALID,56.5221,VALID,0,VALID,22.9926,VALID,330,VALID,0,
2009-12-08, 01:53:05,VALID,1009.7,VALID,0,VALID,56.5145,VALID,0,VALID,22.9714,VALID,330,VALID,0,
2009-12-08, 01:54:05,VALID,1009.7,VALID,0,VALID,56.4992,VALID,0,VALID,22.9731,VALID,330,VALID,0,
2009-12-08, 01:55:05,VALID,1009.71,VALID,0,VALID,56.4687,VALID,0,VALID,22.9714,VALID,330,VALID,0,
2009-12-08, 01:56:05,VALID,1009.69,VALID,0,VALID,56.4763,VALID,0,VALID,22.9519,VALID,330,VALID,0,
2009-12-08, 01:57:05,VALID,1009.71,VALID,0,VALID,56.4611,VALID,0,VALID,22.9519,VALID,330,VALID,0,
2009-12-08, 01:58:05,VALID,1009.71,VALID,0,VALID,56.4687,VALID,0.105969,VALID,22.9926,VALID,330,VALID,0,
2009-12-08, 01:59:05,VALID,1009.72,VALID,0,VALID,56.4992,VALID,0,VALID,22.9731,VALID,330,VALID,0,
2009-12-08, 02:00:05,VALID,1009.69,VALID,0,VALID,56.4916,VALID,0,VALID,22.9714,VALID,322,VALID,0,
2009-12-08, 02:01:05,VALID,1009.69,VALID,0,VALID,56.4535,VALID,0.105969,VALID,22.9926,VALID,304,VALID,0,
2009-12-08, 02:02:05,VALID,1009.71,VALID,0,VALID,56.4763,VALID,0,VALID,22.9926,VALID,297,VALID,0,
2009-12-08, 02:03:05,VALID,1009.68,VALID,0,VALID,56.4458,VALID,0,VALID,23.0121,VALID,297,VALID,0,
2009-12-08, 02:04:05,VALID,1009.7,VALID,0,VALID,56.4687,VALID,0,VALID,23.0121,VALID,297,VALID,0,
2009-12-08, 02:05:05,VALID,1009.7,VALID,0,VALID,56.484,VALID,0,VALID,22.9926,VALID,297,VALID,0,
2009-12-08, 02:06:05,VALID,1009.69,VALID,0,VALID,56.4458,VALID,0.105969,VALID,23.0121,VALID,297,VALID,0,
2009-12-08, 02:07:05,VALID,1009.7,VALID,0,VALID,56.4535,VALID,0.105969,VALID,23.0103,VALID,297,VALID,0,
2009-12-08, 02:08:05,VALID,1009.68,VALID,0,VALID,56.4306,VALID,0,VALID,22.9909,VALID,297,VALID,0,
2009-12-08, 02:09:05,VALID,1009.67,VALID,0,VALID,56.4611,VALID,0.105969,VALID,23.0121,VALID,297,VALID,0,
2009-12-08, 02:10:05,VALID,1009.67,VALID,0,VALID,56.4763,VALID,0.105969,VALID,22.9909,VALID,297,VALID,0,
2009-12-08, 02:11:05,VALID,1009.66,VALID,0,VALID,56.484,VALID,0,VALID,23.0121,VALID,297,VALID,0,
2009-12-08, 02:12:05,VALID,1009.67,VALID,0,VALID,56.4611,VALID,0.105969,VALID,22.9714,VALID,297,VALID,0,
2009-12-08, 02:13:05,VALID,1009.67,VALID,0,VALID,56.4535,VALID,0.105969,VALID,22.9714,VALID,297,VALID,0,
2009-12-08, 02:14:05,VALID,1009.65,VALID,0,VALID,56.5373,VALID,0,VALID,22.9926,VALID,297,VALID,0,
2009-12-08, 02:15:05,VALID,1009.66,VALID,0,VALID,56.5678,VALID,0,VALID,22.9926,VALID,297,VALID,0,
2009-12-08, 02:16:05,VALID,1009.65,VALID,0,VALID,56.545,VALID,0.105969,VALID,22.9714,VALID,297,VALID,0,
2009-12-08, 02:17:05,VALID,1009.67,VALID,0,VALID,56.5297,VALID,0,VALID,22.9714,VALID,297,VALID,0,
2009-12-08, 02:18:05,VALID,1009.66,VALID,0,VALID,56.5602,VALID,0.105969,VALID,22.9926,VALID,297,VALID,0,
2009-12-08, 02:19:05,VALID,1009.69,VALID,0,VALID,56.5907,VALID,0,VALID,22.9519,VALID,297,VALID,0,
2009-12-08, 02:20:05,VALID,1009.71,VALID,0,VALID,56.606,VALID,0.105969,VALID,22.9519,VALID,297,VALID,0,
2009-12-08, 02:21:05,VALID,1009.7,VALID,0,VALID,56.5373,VALID,0,VALID,22.9519,VALID,297,VALID,0,
2009-12-08, 02:22:05,VALID,1009.7,VALID,0,VALID,56.545,VALID,0.105969,VALID,22.9731,VALID,297,VALID,0,
2009-12-08, 02:23:05,VALID,1009.69,VALID,0,VALID,56.5221,VALID,0.105969,VALID,22.9519,VALID,297,VALID,0,
2009-12-08, 02:24:05,VALID,1009.69,VALID,0,VALID,56.5297,VALID,0.105969,VALID,22.9731,VALID,297,VALID,0,
2009-12-08, 02:25:05,VALID,1009.69,VALID,0,VALID,56.5221,VALID,0.105969,VALID,22.9519,VALID,297,VALID,0,
2009-12-08, 02:26:05,VALID,1009.67,VALID,0,VALID,56.5678,VALID,0,VALID,22.9536,VALID,297,VALID,0,
2009-12-08, 02:27:05,VALID,1009.66,VALID,0,VALID,56.545,VALID,0,VALID,22.9536,VALID,297,VALID,0,
2009-12-08, 02:28:05,VALID,1009.68,VALID,0,VALID,56.4535,VALID,0,VALID,22.9536,VALID,297,VALID,0,
2009-12-08, 02:29:05,VALID,1009.65,VALID,0,VALID,56.4458,VALID,0,VALID,22.9749,VALID,297,VALID,0,
2009-12-08, 02:30:05,VALID,1009.67,VALID,0,VALID,56.5526,VALID,0,VALID,22.9731,VALID,297,VALID,0,
2009-12-08, 02:31:05,VALID,1009.64,VALID,0,VALID,56.5221,VALID,0,VALID,22.9943,VALID,297,VALID,0,
2009-12-08, 02:32:05,VALID,1009.62,VALID,0,VALID,56.5068,VALID,0,VALID,22.9926,VALID,297,VALID,0,
2009-12-08, 02:33:05,VALID,1009.6,VALID,0,VALID,56.5526,VALID,0,VALID,22.9731,VALID,297,VALID,0,
2009-12-08, 02:34:05,VALID,1009.59,VALID,0,VALID,56.5145,VALID,0,VALID,22.9926,VALID,297,VALID,0,
2009-12-08, 02:35:05,VALID,1009.57,VALID,0,VALID,56.4153,VALID,0,VALID,23.0138,VALID,297,VALID,0,
2009-12-08, 02:36:05,VALID,1009.55,VALID,0,VALID,56.3848,VALID,0,VALID,23.0121,VALID,297,VALID,0,
2009-12-08, 02:37:05,VALID,1009.53,VALID,0,VALID,56.3924,VALID,0,VALID,23.0333,VALID,297,VALID,0,
2009-12-08, 02:38:05,VALID,1009.52,VALID,0,VALID,56.4153,VALID,0,VALID,23.0121,VALID,297,VALID,0,
2009-12-08, 02:39:05,VALID,1009.46,VALID,0,VALID,56.4153,VALID,0,VALID,23.0333,VALID,297,VALID,0,
2009-12-08, 02:40:05,VALID,1009.45,VALID,0,VALID,56.4153,VALID,0,VALID,22.9926,VALID,297,VALID,0,
2009-12-08, 02:41:05,VALID,1009.42,VALID,0,VALID,56.4382,VALID,0,VALID,22.9926,VALID,297,VALID,0,
2009-12-08, 02:42:05,VALID,1009.44,VALID,0,VALID,56.4306,VALID,0,VALID,22.9926,VALID,297,VALID,0,
2009-12-08, 02:43:05,VALID,1009.42,VALID,0,VALID,56.423,VALID,0,VALID,22.9731,VALID,297,VALID,0,
2009-12-08, 02:44:05,VALID,1009.43,VALID,0,VALID,56.4153,VALID,0,VALID,22.9926,VALID,297,VALID,0,
2009-12-08, 02:45:05,VALID,1009.41,VALID,0,VALID,56.4382,VALID,0,VALID,22.9731,VALID,297,VALID,0,
2009-12-08, 02:46:05,VALID,1009.43,VALID,0,VALID,56.423,VALID,0,VALID,22.9731,VALID,297,VALID,0,
2009-12-08, 02:47:05,VALID,1009.44,VALID,0,VALID,56.4001,VALID,0,VALID,22.9731,VALID,297,VALID,0,
2009-12-08, 02:48:05,VALID,1009.46,VALID,0,VALID,56.4077,VALID,0,VALID,22.9536,VALID,297,VALID,0,
2009-12-08, 02:49:05,VALID,1009.46,VALID,0,VALID,56.4001,VALID,0,VALID,22.9731,VALID,297,VALID,0,
2009-12-08, 02:50:05,VALID,1009.47,VALID,0,VALID,56.3848,VALID,0,VALID,22.9731,VALID,297,VALID,0,
2009-12-08, 02:51:05,VALID,1009.49,VALID,0,VALID,56.3848,VALID,0,VALID,22.9943,VALID,297,VALID,0,
2009-12-08, 02:52:05,VALID,1009.48,VALID,0,VALID,56.3848,VALID,0,VALID,22.9926,VALID,297,VALID,0,
2009-12-08, 02:53:05,VALID,1009.45,VALID,0,VALID,56.3924,VALID,0,VALID,22.9926,VALID,297,VALID,0,
2009-12-08, 02:54:05,VALID,1009.48,VALID,0,VALID,56.3696,VALID,0,VALID,23.0121,VALID,297,VALID,0,
2009-12-08, 02:55:05,VALID,1009.46,VALID,0,VALID,56.3772,VALID,0,VALID,22.9926,VALID,297,VALID,0,
2009-12-08, 02:56:05,VALID,1009.47,VALID,0,VALID,56.3848,VALID,0.105969,VALID,22.9909,VALID,297,VALID,0,
2009-12-08, 02:57:05,VALID,1009.45,VALID,0,VALID,56.3848,VALID,0.105969,VALID,22.9909,VALID,297,VALID,0,
2009-12-08, 02:58:05,VALID,1009.44,VALID,0,VALID,56.3848,VALID,0.105969,VALID,22.9909,VALID,297,VALID,0,
2009-12-08, 02:59:05,VALID,1009.45,VALID,0,VALID,56.3924,VALID,0,VALID,22.9909,VALID,297,VALID,0,
2009-12-08, 03:00:05,VALID,1009.44,VALID,0,VALID,56.3772,VALID,0.105969,VALID,22.9909,VALID,297,VALID,0,
2009-12-08, 03:01:05,VALID,1009.43,VALID,0,VALID,56.3772,VALID,0.105969,VALID,22.9909,VALID,297,VALID,0,
2009-12-08, 03:02:05,VALID,1009.43,VALID,0,VALID,56.3772,VALID,0.105969,VALID,22.9909,VALID,297,VALID,0,
2009-12-08, 03:03:05,VALID,1009.44,VALID,0,VALID,56.3467,VALID,0.105969,VALID,22.9909,VALID,297,VALID,0,
2009-12-08, 03:04:05,VALID,1009.45,VALID,0,VALID,56.3467,VALID,0.105969,VALID,23.0316,VALID,297,VALID,0,
2009-12-08, 03:05:05,VALID,1009.47,VALID,0,VALID,56.3543,VALID,0.105969,VALID,22.9909,VALID,297,VALID,0,
2009-12-08, 03:06:05,VALID,1009.45,VALID,0,VALID,56.3848,VALID,0.105969,VALID,22.9909,VALID,297,VALID,0,
2009-12-08, 03:07:04,VALID,1009.43,VALID,0,VALID,56.3848,VALID,0.105969,VALID,22.9909,VALID,297,VALID,0,
2009-12-08, 03:08:04,VALID,1009.42,VALID,0,VALID,56.3924,VALID,0.105969,VALID,22.9909,VALID,297,VALID,0,
2009-12-08, 03:09:04,VALID,1009.43,VALID,0,VALID,56.4153,VALID,0,VALID,22.9714,VALID,297,VALID,0,
2009-12-08, 03:10:04,VALID,1009.42,VALID,0,VALID,56.423,VALID,0,VALID,22.9926,VALID,297,VALID,0,
2009-12-08, 03:11:04,VALID,1009.43,VALID,0,VALID,56.4306,VALID,0.105969,VALID,22.9714,VALID,297,VALID,0,
2009-12-08, 03:12:04,VALID,1009.42,VALID,0,VALID,56.4306,VALID,0.105969,VALID,22.9909,VALID,297,VALID,0,
2009-12-08, 03:13:04,VALID,1009.41,VALID,0,VALID,56.4153,VALID,0.105969,VALID,22.9714,VALID,297,VALID,0,
2009-12-08, 03:14:04,VALID,1009.43,VALID,0,VALID,56.4001,VALID,0.105969,VALID,22.9714,VALID,297,VALID,0,
2009-12-08, 03:15:04,VALID,1009.45,VALID,0,VALID,56.4306,VALID,0.105969,VALID,23.0121,VALID,297,VALID,0,
2009-12-08, 03:16:04,VALID,1009.44,VALID,0,VALID,56.4382,VALID,0.105969,VALID,22.9909,VALID,297,VALID,0,
2009-12-08, 03:17:04,VALID,1009.46,VALID,0,VALID,56.4611,VALID,0.105969,VALID,22.9909,VALID,297,VALID,0,
2009-12-08, 03:18:04,VALID,1009.43,VALID,0,VALID,56.484,VALID,0.105969,VALID,22.9909,VALID,297,VALID,0,
2009-12-08, 03:19:04,VALID,1009.46,VALID,0,VALID,56.4992,VALID,0.105969,VALID,22.9909,VALID,297,VALID,0,
2009-12-08, 03:20:04,VALID,1009.49,VALID,0,VALID,56.5221,VALID,0.105969,VALID,23.0103,VALID,297,VALID,0,
2009-12-08, 03:21:04,VALID,1009.46,VALID,0,VALID,56.4916,VALID,0.105969,VALID,22.9909,VALID,297,VALID,0,
2009-12-08, 03:22:04,VALID,1009.48,VALID,0,VALID,56.484,VALID,0.105969,VALID,23.0103,VALID,297,VALID,0,
2009-12-08, 03:23:04,VALID,1009.46,VALID,0,VALID,56.5145,VALID,0.105969,VALID,23.0103,VALID,297,VALID,0,
2009-12-08, 03:24:04,VALID,1009.46,VALID,0,VALID,56.5678,VALID,0.105969,VALID,22.9909,VALID,297,VALID,0,
2009-12-08, 03:25:04,VALID,1009.45,VALID,0,VALID,56.5297,VALID,0.105969,VALID,22.9909,VALID,297,VALID,0,
2009-12-08, 03:26:04,VALID,1009.49,VALID,0,VALID,56.5602,VALID,0,VALID,22.9926,VALID,297,VALID,0,
2009-12-08, 03:27:04,VALID,1009.47,VALID,0,VALID,56.5221,VALID,0,VALID,22.9749,VALID,297,VALID,0,
2009-12-08, 03:28:04,VALID,1009.46,VALID,0,VALID,56.5297,VALID,0,VALID,22.9926,VALID,297,VALID,0,
2009-12-08, 03:29:04,VALID,1009.5,VALID,0,VALID,56.4687,VALID,0,VALID,22.9731,VALID,297,VALID,0,
2009-12-08, 03:30:04,VALID,1009.52,VALID,0,VALID,56.4382,VALID,0,VALID,22.9731,VALID,300,VALID,0,
2009-12-08, 03:31:04,VALID,1009.53,VALID,0,VALID,56.423,VALID,0,VALID,22.9926,VALID,55,VALID,0,
2009-12-08, 03:32:04,VALID,1009.53,VALID,0,VALID,56.3772,VALID,0,VALID,22.9943,VALID,55,VALID,0,
2009-12-08, 03:33:04,VALID,1009.56,VALID,0,VALID,56.4001,VALID,0,VALID,22.9731,VALID,55,VALID,0,
2009-12-08, 03:34:04,VALID,1009.58,VALID,0,VALID,56.4001,VALID,0,VALID,22.9926,VALID,55,VALID,0,
2009-12-08, 03:35:04,VALID,1009.6,VALID,0,VALID,56.3543,VALID,0,VALID,23.0138,VALID,55,VALID,0,
2009-12-08, 03:36:04,VALID,1009.62,VALID,0,VALID,56.3543,VALID,0,VALID,22.9926,VALID,55,VALID,0,
2009-12-08, 03:37:04,VALID,1009.65,VALID,0,VALID,56.3696,VALID,0,VALID,22.9926,VALID,55,VALID,0,
2009-12-08, 03:38:04,VALID,1009.64,VALID,0,VALID,56.3696,VALID,0,VALID,23.0138,VALID,55,VALID,0,
2009-12-08, 03:39:04,VALID,1009.67,VALID,0,VALID,56.3696,VALID,0,VALID,23.0333,VALID,55,VALID,0,
2009-12-08, 03:40:04,VALID,1009.68,VALID,0,VALID,56.3772,VALID,0,VALID,23.0138,VALID,55,VALID,0,
2009-12-08, 03:41:04,VALID,1009.7,VALID,0,VALID,56.3772,VALID,0,VALID,23.0121,VALID,55,VALID,0,
2009-12-08, 03:42:04,VALID,1009.71,VALID,0,VALID,56.3619,VALID,0.105969,VALID,23.0316,VALID,55,VALID,0,
2009-12-08, 03:43:04,VALID,1009.71,VALID,0,VALID,56.3696,VALID,0.105969,VALID,22.9909,VALID,55,VALID,0,
2009-12-08, 03:44:04,VALID,1009.69,VALID,0,VALID,56.3848,VALID,0.105969,VALID,23.0121,VALID,55,VALID,0,
2009-12-08, 03:45:04,VALID,1009.72,VALID,0,VALID,56.3772,VALID,0,VALID,23.0121,VALID,55,VALID,0,
2009-12-08, 03:46:04,VALID,1009.73,VALID,0,VALID,56.3848,VALID,0,VALID,22.9909,VALID,55,VALID,0,
2009-12-08, 03:47:04,VALID,1009.71,VALID,0,VALID,56.3848,VALID,0,VALID,23.0121,VALID,55,VALID,0,
2009-12-08, 03:48:04,VALID,1009.74,VALID,0,VALID,56.3696,VALID,0.105969,VALID,23.0121,VALID,55,VALID,0,
2009-12-08, 03:49:04,VALID,1009.75,VALID,0,VALID,56.4001,VALID,0,VALID,23.0121,VALID,55,VALID,0,
2009-12-08, 03:50:04,VALID,1009.78,VALID,0,VALID,56.4001,VALID,0.105969,VALID,23.0121,VALID,55,VALID,0,
2009-12-08, 03:51:04,VALID,1009.82,VALID,0,VALID,56.4001,VALID,0,VALID,22.9714,VALID,55,VALID,0,
2009-12-08, 03:52:04,VALID,1009.81,VALID,0,VALID,56.3543,VALID,0.105969,VALID,23.0121,VALID,55,VALID,0,
2009-12-08, 03:53:04,VALID,1009.8,VALID,0,VALID,56.4001,VALID,0.105969,VALID,22.9714,VALID,55,VALID,0,